Weather History for Cando, ND

Change the Weather History Date:

Monday, February 18, 2013

  Actual Average (KDVL) Record (KDVL)
Temperature  
Mean Temperature 6 °F -  
Max Temperature 19 °F 22 °F 46 °F (1954)
Min Temperature -9 °F 4 °F -35 °F (1966)
Degree Days  
Heating Degree Days 59    
Moisture  
Dew Point 1 °F    
Average Humidity 82    
Maximum Humidity 100    
Minimum Humidity 65    
Precipitation  
Precipitation 9.11 in - - ()
Sea Level Pressure  
Sea Level Pressure 29.94 in    
Wind  
Wind Speed 27 mph (North)    
Max Wind Speed 34 mph    
Max Gust Speed 45 mph    
Visibility 3 miles    
Events Rain , Snow    
Averages and records for this station are not official NWS values.
T = Trace of Precipitation, MM = Missing Value Source: NWS Daily Summary

Daily Weather History Graph

Daily Weather History Graph

Search for Another Location

Airport:

Trip Planner

Search our weather history database for the weather conditions in past years. The results will help you decide how hot, cold, wet, or windy it might be!

Date:

Astronomy

Feb. 18, 2013 Rise Set
Actual Time 7:38 AM CST 6:03 PM CST
Civil Twilight 7:06 AM CST 6:36 PM CST
Nautical Twilight 6:29 AM CST 7:12 PM CST
Astronomical Twilight 5:53 AM CST 7:48 PM CST
Moon 11:36 AM CST (2/18) 2:33 AM CST (2/18)
Length of Visible Light 11h 29m
Length of Day
10h 25m
First Quarter, 58% of the Moon is Illuminated
Feb 18
First Quarter
Feb 25
Full
Mar 4
Last Quarter
Mar 11
New
Mar 19
First Quarter

Hourly Weather History & Observations

Time (CST) Temp. Windchill Dew Point Humidity Pressure Visibility Wind Dir Wind Speed Gust Speed Precip Events Conditions
12:15 AM 19.4 °F 1.8 °F 17.6 °F 93% 29.58 in 1.2 mi North 25.3 mph 33.4 mph 0.50 in Snow Light Snow
12:35 AM 19.4 °F 0.5 °F 17.6 °F 93% 29.58 in 1.2 mi North 29.9 mph - 1.03 in Snow Light Snow
12:55 AM 19.4 °F 2.5 °F 17.6 °F 93% 29.59 in 1.2 mi North 23.0 mph 31.1 mph 1.33 in Snow Light Snow
1:15 AM 17.6 °F -0.6 °F 17.6 °F 100% 29.61 in 1.0 mi North 25.3 mph 34.5 mph 0.22 in Snow Light Snow
1:35 AM 17.6 °F -1.3 °F 17.6 °F 100% 29.62 in 0.8 mi North 27.6 mph 34.5 mph 1.15 in Snow Light Snow
1:55 AM 17.6 °F -1.3 °F 15.8 °F 93% 29.63 in 1.0 mi North 27.6 mph 40.3 mph 1.64 in Snow Light Snow
2:15 AM 17.6 °F -1.9 °F 15.8 °F 93% 29.65 in 0.8 mi North 29.9 mph 36.8 mph 0.16 in Snow Light Snow
2:35 AM 15.8 °F -3.1 °F 15.8 °F 100% 29.66 in 0.8 mi North 25.3 mph 41.4 mph 0.50 in Snow Light Snow
2:55 AM 15.8 °F -5.5 °F 14.0 °F 93% 29.68 in 1.0 mi North 34.5 mph 42.6 mph 0.74 in Snow Light Snow
3:15 AM 14.0 °F -8.0 °F 14.0 °F 100% 29.70 in 1.0 mi North 34.5 mph 42.6 mph 0.13 in Snow Light Snow
3:35 AM 14.0 °F -7.1 °F 10.4 °F 86% 29.71 in 0.5 mi North 31.1 mph 36.8 mph 0.46 in Snow Snow
3:55 AM 12.2 °F -8.6 °F 8.6 °F 85% 29.72 in 0.8 mi North 27.6 mph 38.0 mph 0.91 in Snow Light Snow
4:15 AM 10.4 °F -10.7 °F 8.6 °F 92% 29.73 in 1.0 mi North 26.5 mph 35.7 mph 0.43 in Rain Light Freezing Rain
4:35 AM 10.4 °F -11.7 °F 6.8 °F 85% 29.75 in 0.8 mi North 29.9 mph 38.0 mph 1.13 in Rain Light Freezing Rain
4:55 AM 8.6 °F -13.4 °F 6.8 °F 92% 29.77 in 1.0 mi North 27.6 mph 36.8 mph 1.35 in Rain Light Freezing Rain
5:15 AM 8.6 °F -14.5 °F 5.0 °F 85% 29.78 in 0.8 mi North 31.1 mph 41.4 mph 0.20 in Rain Light Freezing Rain
5:35 AM 6.8 °F -17.6 °F 5.0 °F 92% 29.80 in 0.8 mi North 33.4 mph 40.3 mph 0.55 in Rain Light Freezing Rain
5:55 AM 6.8 °F -15.1 °F 5.0 °F 92% 29.81 in 1.0 mi North 25.3 mph 40.3 mph 0.86 in Rain Light Freezing Rain
6:15 AM 6.8 °F -17.3 °F 3.2 °F 85% 29.82 in 0.5 mi North 32.2 mph 40.3 mph 0.23 in Rain Light Freezing Rain
6:35 AM 6.8 °F -16.2 °F 3.2 °F 85% 29.83 in 0.8 mi North 28.8 mph 41.4 mph 0.48 in Rain Light Freezing Rain
6:55 AM 6.8 °F -17.3 °F 1.4 °F 79% 29.84 in 0.8 mi North 32.2 mph 44.9 mph 0.69 in Rain Light Freezing Rain
7:15 AM 6.8 °F -17.3 °F 1.4 °F 79% 29.84 in 0.8 mi North 32.2 mph 40.3 mph 0.18 in Rain Light Freezing Rain
7:35 AM 6.8 °F -15.9 °F 1.4 °F 79% 29.85 in 0.5 mi North 27.6 mph 35.7 mph 0.70 in Rain Light Freezing Rain
7:55 AM 6.8 °F -15.9 °F 1.4 °F 79% 29.85 in 0.8 mi North 27.6 mph 33.4 mph 1.06 in Snow Light Snow
8:15 AM 5.0 °F -19.7 °F 1.4 °F 85% 29.86 in 0.5 mi North 32.2 mph 40.3 mph 0.04 in Rain Light Freezing Rain
8:35 AM 5.0 °F -19.0 °F 1.4 °F 85% 29.87 in 1.0 mi North 29.9 mph 36.8 mph 0.10 in Rain Light Freezing Rain
8:55 AM 5.0 °F -19.4 °F 1.4 °F 85% 29.88 in 0.5 mi North 31.1 mph 40.3 mph 0.16 in Rain Light Freezing Rain
9:15 AM 6.8 °F -15.5 °F 1.4 °F 79% 29.89 in 1.0 mi North 26.5 mph - 0.01 in Rain Light Freezing Rain
9:35 AM 6.8 °F -16.9 °F 1.4 °F 79% 29.90 in 0.8 mi North 31.1 mph 38.0 mph 0.07 in Rain Light Freezing Rain
9:55 AM 5.0 °F -19.0 °F 1.4 °F 85% 29.91 in 0.5 mi North 29.9 mph 40.3 mph 0.15 in Rain Light Freezing Rain
10:15 AM 5.0 °F -20.1 °F -0.4 °F 78% 29.92 in 0.5 mi North 33.4 mph 41.4 mph 0.06 in Rain Light Freezing Rain
10:35 AM 5.0 °F -18.7 °F -0.4 °F 78% 29.93 in 0.5 mi North 28.8 mph 41.4 mph 0.15 in Rain Light Freezing Rain
10:55 AM 5.0 °F -18.7 °F -0.4 °F 78% 29.94 in 1.2 mi North 28.8 mph 33.4 mph 0.18 in Rain Light Freezing Rain
11:15 AM 5.0 °F -17.9 °F -0.4 °F 78% 29.95 in 1.2 mi North 26.5 mph 33.4 mph N/A Rain Light Freezing Rain
11:35 AM 5.0 °F -18.3 °F -0.4 °F 78% 29.97 in 1.2 mi North 27.6 mph - 0.01 in Rain Light Freezing Rain
11:55 AM 3.2 °F -20.7 °F -0.4 °F 85% 29.97 in 1.2 mi North 27.6 mph - 0.03 in Rain Light Freezing Rain
12:15 PM 3.2 °F -20.3 °F -2.2 °F 78% 29.98 in 1.2 mi North 26.5 mph 34.5 mph N/A Rain Light Freezing Rain
12:35 PM 3.2 °F -21.1 °F -2.2 °F 78% 29.99 in 1.5 mi North 28.8 mph 36.8 mph 0.01 in Rain Light Freezing Rain
12:55 PM 3.2 °F -21.1 °F -2.2 °F 78% 29.99 in 1.2 mi North 28.8 mph 33.4 mph 0.01 in   Haze
1:15 PM 3.2 °F -19.9 °F -2.2 °F 78% 29.99 in 1.0 mi North 25.3 mph 33.4 mph N/A Rain Light Freezing Rain
1:35 PM 3.2 °F -21.8 °F -2.2 °F 78% 30.00 in 1.0 mi NNW 31.1 mph 36.8 mph N/A Rain Light Freezing Rain
1:55 PM 3.2 °F -19.9 °F -0.4 °F 85% 30.00 in 1.0 mi NNW 25.3 mph 34.5 mph N/A Rain Light Freezing Rain
2:15 PM 3.2 °F -21.5 °F -0.4 °F 85% 30.00 in 0.8 mi North 29.9 mph 35.7 mph N/A   Overcast
2:35 PM 3.2 °F -21.1 °F -2.2 °F 78% 30.01 in 0.8 mi North 28.8 mph 36.8 mph N/A Rain Light Freezing Rain
2:55 PM 3.2 °F -21.5 °F -0.4 °F 85% 30.01 in 0.5 mi NNW 29.9 mph 38.0 mph N/A Rain Light Freezing Rain
3:15 PM 5.0 °F -19.0 °F -0.4 °F 78% 30.02 in 0.8 mi North 29.9 mph 34.5 mph N/A Rain Light Freezing Rain
3:35 PM 5.0 °F -18.7 °F -0.4 °F 78% 30.03 in 1.0 mi NNW 28.8 mph 35.7 mph N/A Rain Light Freezing Rain
3:55 PM 5.0 °F -18.7 °F -0.4 °F 78% 30.04 in 0.8 mi North 28.8 mph 38.0 mph N/A Rain Light Freezing Rain
4:15 PM 5.0 °F -18.3 °F -0.4 °F 78% 30.04 in 1.0 mi NNW 27.6 mph 34.5 mph N/A Rain Light Freezing Rain
4:35 PM 5.0 °F -17.1 °F -0.4 °F 78% 30.05 in 2.0 mi North 24.2 mph 29.9 mph N/A   Haze
4:55 PM 5.0 °F -19.0 °F -0.4 °F 78% 30.06 in 1.8 mi North 29.9 mph 35.7 mph N/A   Overcast
5:15 PM 3.2 °F -21.1 °F -0.4 °F 85% 30.07 in 1.2 mi North 28.8 mph 40.3 mph N/A Rain Light Freezing Rain
5:35 PM 1.4 °F -22.3 °F -2.2 °F 85% 30.08 in 2.0 mi North 25.3 mph 34.5 mph N/A   Overcast
5:55 PM 1.4 °F -21.4 °F -2.2 °F 85% 30.10 in 3.0 mi North 23.0 mph 32.2 mph N/A   Overcast
6:15 PM 1.4 °F -21.4 °F -2.2 °F 85% 30.11 in 4.0 mi North 23.0 mph 31.1 mph N/A   Overcast
6:35 PM 1.4 °F -20.5 °F -2.2 °F 85% 30.12 in 7.0 mi North 20.7 mph - N/A   Overcast
6:55 PM -0.4 °F -23.8 °F -4.0 °F 85% 30.13 in 7.0 mi North 23.0 mph 35.7 mph N/A   Overcast
7:15 PM -0.4 °F -24.7 °F -7.6 °F 72% 30.15 in 9.0 mi North 25.3 mph 29.9 mph N/A   Mostly Cloudy
7:35 PM -2.2 °F -25.7 °F -7.6 °F 78% 30.16 in 10.0 mi North 21.9 mph 26.5 mph N/A   Partly Cloudy
7:55 PM -2.2 °F -26.2 °F -9.4 °F 71% 30.15 in 9.0 mi North 23.0 mph 32.2 mph N/A   Partly Cloudy
8:15 PM -4.0 °F -27.6 °F -9.4 °F 78% 30.16 in 10.0 mi North 20.7 mph 27.6 mph N/A   Partly Cloudy
8:35 PM -4.0 °F -28.6 °F -9.4 °F 78% 30.16 in 10.0 mi North 23.0 mph 31.1 mph N/A   Partly Cloudy
8:55 PM -4.0 °F -30.4 °F -11.2 °F 71% 30.16 in 7.0 mi North 27.6 mph 33.4 mph N/A   Partly Cloudy
9:15 PM -4.0 °F -28.1 °F -11.2 °F 71% 30.18 in 9.0 mi North 21.9 mph 31.1 mph N/A   Partly Cloudy
9:35 PM -4.0 °F -30.4 °F -11.2 °F 71% 30.18 in 9.0 mi North 27.6 mph 32.2 mph N/A   Partly Cloudy
9:55 PM -4.0 °F -29.6 °F - N/A% 30.19 in 10.0 mi North 25.3 mph 31.1 mph N/A   Clear
10:15 PM -5.8 °F -31.0 °F -13.0 °F 71% 30.20 in 10.0 mi North 23.0 mph 31.1 mph N/A   Clear
10:35 PM -7.6 °F -32.3 °F -13.0 °F 77% 30.21 in 10.0 mi North 20.7 mph - N/A   Clear
10:55 PM -7.6 °F -31.7 °F -14.8 °F 71% 30.22 in 10.0 mi North 19.6 mph - N/A   Clear
11:15 PM -7.6 °F -32.3 °F -14.8 °F 71% 30.23 in 10.0 mi North 20.7 mph 26.5 mph N/A   Clear
11:35 PM -7.6 °F -31.7 °F -16.6 °F 65% 30.23 in 10.0 mi North 19.6 mph - N/A   Clear
11:55 PM -9.4 °F -32.8 °F -16.6 °F 71% 30.24 in 10.0 mi North 17.3 mph - N/A   Clear